Location: Sternwarte Stuttgart
(48.7670°N, 9.1830°E)
Time: 05:27:53
(UTC+01:00)

Cosmos 1743 Rocket - Pass Details

Date: 24 January 2019
Orbit: 605 x 632 km, 82.6° (Epoch: 20 February)

Event Time Altitude Azimuth Distance (km) Brightness Sun altitude
Rises 07:18:23 0° 348° (NNW) 2,932 6.7 -7.6°
Reaches altitude 10° 07:20:38 10° 347° (NNW) 2,022 5.9 -7.2°
Maximum altitude 07:25:07 74° 263° (W) 661 3.6 -6.5°
Drops below altitude 10° 07:29:34 10° 179° (S) 2,010 6.5 -5.9°
Sets 07:31:47 0° 177° (S) 2,912 7.4 -5.5°
